Tracking 32941 objects as of 15-Jan-2026
HD Live streaming from Space Station
objects crossing your sky now

STARLINK-33808

Track STARLINK-33808 now!
10-day predictions
STARLINK-33808 is classified as:


NORAD ID: 63767
Int'l Code: 2025-089S
Perigee: 489.4 km
Apogee: 491.0 km
Inclination: 43.0 °
Period: 94.3 minutes
Semi major axis: 6861 km
RCS: Unknown
Launch date: April 29, 2025
Source: United States (US)
Launch site: AIR FORCE EASTERN TEST RANGE (AFETR)
Your satellite tracking list
Your tracking list is empty




NASA's NSSDC Master Catalog

Two Line Element Set (TLE):
1 63767U 25089S   26014.65500544  .00010081  00000-0  37525-3 0  9990
2 63767  43.0018 350.3968 0001167 279.6386  80.4334 15.27589941 40699
Source of the keplerian elements: AFSPC